Regional Weather Roundup
Issued by NWS

Home | Current Version | Previous Version | Graphics & Text | Print | Product List | Glossary On
Versions: 1 2 3 4 5 6 7 8 9 10 11 12 13 14 15 16 17 18 19 20 21 22 23 24 25 26 27 28 29 30 31 32 33 34 35 36 37 38 39 40 41 42 43 44 45 46 47 48 49 50
000
ASUS45 KCYS 040010
RWRWY

WYOMING REGIONAL WEATHER ROUNDUP
NATIONAL WEATHER SERVICE CHEYENNE WY
600 PM MDT SUN MAY 03 2015

NOTE:  "FAIR" INDICATES FEW OR NO CLOUDS BELOW 12,000 FEET
WITH NO SIGNIFICANT WEATHER AND/OR OBSTRUCTIONS TO VISIBILITY.

WYZ001-040100-
YELLOWSTONE NATIONAL PARK

CITY           SKY/WX    TMP DP  RH WIND       PRES   REMARKS
LK YELLOWSTONE   N/A     47  31  53 W8        30.09R
6HR MIN TEMP:  47; 6HR MAX TEMP:  59;

W YELLOWSTONE  NOT AVBL

$$
WYZ002>013-054>058-071-098>099-040100-
NORTHERN WYOMING

CITY           SKY/WX    TMP DP  RH WIND       PRES   REMARKS
JACKSON        SHOWER    52  39  62 VRB6      30.00R
CODY           CLOUDY    57  36  44 N14       29.97S
GREYBULL       PTSUNNY   71  33  24 NW8G21    29.90S
6HR MIN TEMP:  62; 6HR MAX TEMP:  72;

WORLAND        CLOUDY    66  34  30 N13       29.91F
6HR MIN TEMP:  59; 6HR MAX TEMP:  68;

SHERIDAN       RAIN      59  43  55 E8        29.99R
6HR MIN TEMP:  57; 6HR MAX TEMP:  66; 6HR PCP:  0.02;

BUFFALO        LGT RAIN  56  44  64 N6        30.02R
6HR MIN TEMP:  56; 6HR MAX TEMP:  65; 6HR PCP: TRACE;

GILLETTE       FAIR      64  39  39 NE17      29.99R
6HR MIN TEMP:  60; 6HR MAX TEMP:  68;

HULETT         FAIR      61  36  39 E10G23    30.03S
NEWCASTLE      MOCLDY    61  36  39 E17       30.00R

$$
WYZ014>020-022>026-101>103-040100-
CENTRAL WYOMING

CITY           SKY/WX    TMP DP  RH WIND       PRES   REMARKS
BIG PINEY      FAIR      57  38  48 E8        30.03F
6HR MIN TEMP:  46; 6HR MAX TEMP:  64; 6HR PCP:  0.03;

PINEDALE       FAIR      54  36  50 CALM      30.03F
DUBOIS         FAIR      57  28  33 SE7       29.98F
LANDER         FAIR      56  43  61 SW12      29.94F
6HR MIN TEMP:  51; 6HR MAX TEMP:  68; 6HR PCP: TRACE;

RIVERTON       FAIR      59  37  44 SW15      29.94F
6HR MIN TEMP:  58; 6HR MAX TEMP:  70;

CASPER         FAIR      65  34  31 E10       29.94F
6HR MIN TEMP:  59; 6HR MAX TEMP:  68; 6HR PCP: TRACE;

DOUGLAS        PTSUNNY   64  39  39 SE20      29.97R
6HR MIN TEMP:  62; 6HR MAX TEMP:  69;


$$
WYZ021-027>030-104>119-040100-
SOUTHERN WYOMING

CITY           SKY/WX    TMP DP  RH WIND       PRES   REMARKS
EVANSTON       FAIR      60  33  36 SW8       30.00R
6HR MIN TEMP:  49; 6HR MAX TEMP:  65; 6HR PCP:  0.02;

KEMMERER       LGT RAIN  46  37  71 NE8G25    30.03R
FORT BRIDGER   PTCLDY    55  45  67 S14       30.04S
ROCK SPRINGS   FAIR      57  35  43 N6        30.02S
6HR MIN TEMP:  48; 6HR MAX TEMP:  66; 6HR PCP: TRACE;

DIXON          CLOUDY    55  40  56 N6        30.09R
RAWLINS        RAIN      48  41  76 W29G39    30.07R
6HR MIN TEMP:  48; 6HR MAX TEMP:  70; 6HR PCP:  0.07;

SARATOGA       CLOUDY    50  41  71 W23G44    30.08R
LARAMIE        LGT RAIN  51  39  63 NE6       30.07R
6HR MIN TEMP:  51; 6HR MAX TEMP:  60; 6HR PCP: TRACE;

CHEYENNE       CLOUDY    52  44  74 E8        30.06R
6HR MIN TEMP:  50; 6HR MAX TEMP:  68; 6HR PCP:  0.17;

TORRINGTON     FAIR      67  39  35 E16       29.96F
6HR MIN TEMP:  66; 6HR MAX TEMP:  73;

PINE BLUFFS    LGT RAIN  52  46  82 NE15G21   30.03F

$$


USA.gov is the U.S. government's official web portal to all federal, state and local government web resources and services.